Tracking 19817 objects as of 21-Aug-2019
HD Live streaming from Space Station
objects crossing your sky now

SL-3 R/B

Track SL-3 R/B now!
10-day predictions
SL-3 R/B is classified as:


NORAD ID: 13068
Int'l Code: 1982-013B
Perigee: 537.3 km
Apogee: 565.8 km
Inclination: 81.2 °
Period: 95.5 minutes
Semi major axis: 6922 km
RCS: 5.3655 m2 (large)
Launch date: February 19, 1982
Source: Commonwealth of Independent States (former USSR) (CIS)
Launch site: PLESETSK MISSILE AND SPACE COMPLEX (PKMTR)

Note: This is a ROCKET BODY
aabbcc
Your satellite tracking list
Your tracking list is empty




NASA's NSSDC Master Catalog

Two Line Element Set (TLE):
1 13068U 82013B   19232.52685847  .00000555  00000-0  35092-4 0  9992
2 13068  81.2020  35.3257 0020630 211.6829 148.3155 15.07317142 43148
Source of the keplerian elements: AFSPC